owner,sensor,date,latitude,longitude,sea_surface_height_above_sea_level,qcFlag 
TCOON,ioos:station:TCOON:009:1,2014-04-01T00:00:00Z,27.8398,-97.0727,1.696,1111122 
TCOON,ioos:station:TCOON:009:1,2014-04-01T01:00:00Z,27.8398,-97.0727,1.643,1111122 
TCOON,ioos:station:TCOON:009:1,2014-04-01T02:00:00Z,27.8398,-97.0727,1.592,1111122 
TCOON,ioos:station:TCOON:009:1,2014-04-01T03:00:00Z,27.8398,-97.0727,1.559,1111122 
TCOON,ioos:station:TCOON:009:1,2014-04-01T04:00:00Z,27.8398,-97.0727,1.565,1111122 
TCOON,ioos:station:TCOON:009:1,2014-04-01T05:00:00Z,27.8398,-97.0727,1.585,1111122 
TCOON,ioos:station:TCOON:009:1,2014-04-01T06:12:00Z,27.8398,-97.0727,1.645,1111122 
TCOON,ioos:station:TCOON:009:1,2014-04-01T07:00:00Z,27.8398,-97.0727,1.709,1111122 
TCOON,ioos:station:TCOON:009:1,2014-04-01T08:00:00Z,27.8398,-97.0727,1.779,1111122 
TCOON,ioos:station:TCOON:009:1,2014-04-01T09:00:00Z,27.8398,-97.0727,1.85,1111122 
TCOON,ioos:station:TCOON:009:1,2014-04-01T10:00:00Z,27.8398,-97.0727,1.815,1111122 
TCOON,ioos:station:TCOON:009:1,2014-04-01T11:00:00Z,27.8398,-97.0727,1.83,1111122 
TCOON,ioos:station:TCOON:009:1,2014-04-01T12:00:00Z,27.8398,-97.0727,1.837,1111122 
TCOON,ioos:station:TCOON:009:1,2014-04-01T13:00:00Z,27.8398,-97.0727,1.833,1111122 
TCOON,ioos:station:TCOON:009:1,2014-04-01T14:00:00Z,27.8398,-97.0727,1.825,1111122 
TCOON,ioos:station:TCOON:009:1,2014-04-01T15:00:00Z,27.8398,-97.0727,1.799,1111122 
TCOON,ioos:station:TCOON:009:1,2014-04-01T16:00:00Z,27.8398,-97.0727,1.775,1111122 
TCOON,ioos:station:TCOON:009:1,2014-04-01T17:00:00Z,27.8398,-97.0727,1.754,1111122 
TCOON,ioos:station:TCOON:009:1,2014-04-01T18:00:00Z,27.8398,-97.0727,1.766,1111122 
TCOON,ioos:station:TCOON:009:1,2014-04-01T19:00:00Z,27.8398,-97.0727,1.756,1111122 
TCOON,ioos:station:TCOON:009:1,2014-04-01T20:00:00Z,27.8398,-97.0727,1.776,1111122 
TCOON,ioos:station:TCOON:009:1,2014-04-01T21:00:00Z,27.8398,-97.0727,1.761,1111122 
TCOON,ioos:station:TCOON:009:1,2014-04-01T22:00:00Z,27.8398,-97.0727,1.766,1111122 
TCOON,ioos:station:TCOON:009:1,2014-04-01T23:00:00Z,27.8398,-97.0727,1.72,1111122 
TCOON,ioos:station:TCOON:009:1,2014-04-02T00:00:00Z,27.8398,-97.0727,1.654,1111122 
TCOON,ioos:station:TCOON:009:1,2014-04-02T01:00:00Z,27.8398,-97.0727,1.552,1111122 
TCOON,ioos:station:TCOON:009:1,2014-04-02T02:00:00Z,27.8398,-97.0727,1.544,1111122 
TCOON,ioos:station:TCOON:009:1,2014-04-02T03:00:00Z,27.8398,-97.0727,1.5,1111122 
TCOON,ioos:station:TCOON:009:1,2014-04-02T04:00:00Z,27.8398,-97.0727,1.483,1111122 
TCOON,ioos:station:TCOON:009:1,2014-04-02T05:00:00Z,27.8398,-97.0727,1.521,1111122 
TCOON,ioos:station:TCOON:009:1,2014-04-02T06:12:00Z,27.8398,-97.0727,1.529,1111122 
TCOON,ioos:station:TCOON:009:1,2014-04-02T07:00:00Z,27.8398,-97.0727,1.573,1111122 
TCOON,ioos:station:TCOON:009:1,2014-04-02T08:00:00Z,27.8398,-97.0727,1.646,1111122 
TCOON,ioos:station:TCOON:009:1,2014-04-02T09:00:00Z,27.8398,-97.0727,1.717,1111122 
TCOON,ioos:station:TCOON:009:1,2014-04-02T10:00:00Z,27.8398,-97.0727,1.772,1111122 
TCOON,ioos:station:TCOON:009:1,2014-04-02T11:00:00Z,27.8398,-97.0727,1.789,1111122 
TCOON,ioos:station:TCOON:009:1,2014-04-02T12:00:00Z,27.8398,-97.0727,1.787,1111122 
TCOON,ioos:station:TCOON:009:1,2014-04-02T13:00:00Z,27.8398,-97.0727,1.79,1111122 
TCOON,ioos:station:TCOON:009:1,2014-04-02T14:00:00Z,27.8398,-97.0727,1.786,1111122 
TCOON,ioos:station:TCOON:009:1,2014-04-02T15:00:00Z,27.8398,-97.0727,1.803,1111122 
TCOON,ioos:station:TCOON:009:1,2014-04-02T17:12:00Z,27.8398,-97.0727,1.566,1111122 
TCOON,ioos:station:TCOON:009:1,2014-04-02T23:00:00Z,27.8398,-97.0727,1.69,1111122 
TCOON,ioos:station:TCOON:009:1,2014-04-03T00:00:00Z,27.8398,-97.0727,1.653,1111122 
TCOON,ioos:station:TCOON:009:1,2014-04-03T01:00:00Z,27.8398,-97.0727,1.592,1111122 
TCOON,ioos:station:TCOON:009:1,2014-04-03T02:00:00Z,27.8398,-97.0727,1.556,1111122 
TCOON,ioos:station:TCOON:009:1,2014-04-03T03:00:00Z,27.8398,-97.0727,1.493,1111122 
TCOON,ioos:station:TCOON:009:1,2014-04-03T04:00:00Z,27.8398,-97.0727,1.444,1111122 
TCOON,ioos:station:TCOON:009:1,2014-04-03T05:00:00Z,27.8398,-97.0727,1.434,1111122 
TCOON,ioos:station:TCOON:009:1,2014-04-03T06:06:00Z,27.8398,-97.0727,1.441,1111122 
TCOON,ioos:station:TCOON:009:1,2014-04-03T07:00:00Z,27.8398,-97.0727,1.499,1111122 
TCOON,ioos:station:TCOON:009:1,2014-04-03T08:00:00Z,27.8398,-97.0727,1.55,1111122 
TCOON,ioos:station:TCOON:009:1,2014-04-03T09:00:00Z,27.8398,-97.0727,1.634,1111122 
TCOON,ioos:station:TCOON:009:1,2014-04-03T10:00:00Z,27.8398,-97.0727,1.691,1111122 
TCOON,ioos:station:TCOON:009:1,2014-04-03T11:00:00Z,27.8398,-97.0727,1.745,1111122 
TCOON,ioos:station:TCOON:009:1,2014-04-03T12:00:00Z,27.8398,-97.0727,1.764,1111122 
TCOON,ioos:station:TCOON:009:1,2014-04-03T13:00:00Z,27.8398,-97.0727,1.779,1111122 
TCOON,ioos:station:TCOON:009:1,2014-04-03T14:00:00Z,27.8398,-97.0727,1.775,1111122 
TCOON,ioos:station:TCOON:009:1,2014-04-03T15:00:00Z,27.8398,-97.0727,1.782,1111122 
TCOON,ioos:station:TCOON:009:1,2014-04-03T16:00:00Z,27.8398,-97.0727,1.795,1111122 
TCOON,ioos:station:TCOON:009:1,2014-04-03T17:00:00Z,27.8398,-97.0727,1.795,1111122 
TCOON,ioos:station:TCOON:009:1,2014-04-03T18:00:00Z,27.8398,-97.0727,1.778,1111122 
TCOON,ioos:station:TCOON:009:1,2014-04-03T19:00:00Z,27.8398,-97.0727,1.788,1111122 
TCOON,ioos:station:TCOON:009:1,2014-04-03T20:00:00Z,27.8398,-97.0727,1.783,1111122 
TCOON,ioos:station:TCOON:009:1,2014-04-03T21:00:00Z,27.8398,-97.0727,1.797,1111122 
TCOON,ioos:station:TCOON:009:1,2014-04-03T22:00:00Z,27.8398,-97.0727,1.787,1111122 
TCOON,ioos:station:TCOON:009:1,2014-04-03T23:00:00Z,27.8398,-97.0727,1.782,1111122 
TCOON,ioos:station:TCOON:009:1,2014-04-04T00:00:00Z,27.8398,-97.0727,1.782,1111122 
TCOON,ioos:station:TCOON:009:1,2014-04-04T01:00:00Z,27.8398,-97.0727,1.747,1111122 
TCOON,ioos:station:TCOON:009:1,2014-04-04T02:00:00Z,27.8398,-97.0727,1.684,1111122 
TCOON,ioos:station:TCOON:009:1,2014-04-04T03:00:00Z,27.8398,-97.0727,1.624,1111122 
TCOON,ioos:station:TCOON:009:1,2014-04-04T04:00:00Z,27.8398,-97.0727,1.581,1111122 
TCOON,ioos:station:TCOON:009:1,2014-04-04T05:00:00Z,27.8398,-97.0727,1.56,1111122 
TCOON,ioos:station:TCOON:009:1,2014-04-04T06:24:00Z,27.8398,-97.0727,1.559,1111122 
TCOON,ioos:station:TCOON:009:1,2014-04-04T07:00:00Z,27.8398,-97.0727,1.571,1111122 
TCOON,ioos:station:TCOON:009:1,2014-04-04T08:00:00Z,27.8398,-97.0727,1.579,1111122 
TCOON,ioos:station:TCOON:009:1,2014-04-04T09:00:00Z,27.8398,-97.0727,1.642,1111122 
TCOON,ioos:station:TCOON:009:1,2014-04-04T10:00:00Z,27.8398,-97.0727,1.719,1111122 
TCOON,ioos:station:TCOON:009:1,2014-04-04T11:00:00Z,27.8398,-97.0727,1.715,1111122 
TCOON,ioos:station:TCOON:009:1,2014-04-04T12:00:00Z,27.8398,-97.0727,1.767,1111122 
TCOON,ioos:station:TCOON:009:1,2014-04-04T13:00:00Z,27.8398,-97.0727,1.825,1111122 
TCOON,ioos:station:TCOON:009:1,2014-04-04T14:00:00Z,27.8398,-97.0727,1.847,1111122 
TCOON,ioos:station:TCOON:009:1,2014-04-04T15:00:00Z,27.8398,-97.0727,1.818,1111122 
TCOON,ioos:station:TCOON:009:1,2014-04-04T16:00:00Z,27.8398,-97.0727,1.812,1111122 
TCOON,ioos:station:TCOON:009:1,2014-04-04T17:00:00Z,27.8398,-97.0727,1.827,1111122 
TCOON,ioos:station:TCOON:009:1,2014-04-04T18:00:00Z,27.8398,-97.0727,1.825,1111122 
TCOON,ioos:station:TCOON:009:1,2014-04-04T19:00:00Z,27.8398,-97.0727,1.828,1111122 
TCOON,ioos:station:TCOON:009:1,2014-04-04T20:00:00Z,27.8398,-97.0727,1.838,1111122 
TCOON,ioos:station:TCOON:009:1,2014-04-04T21:00:00Z,27.8398,-97.0727,1.826,1111122 
TCOON,ioos:station:TCOON:009:1,2014-04-04T22:00:00Z,27.8398,-97.0727,1.787,1111122 
TCOON,ioos:station:TCOON:009:1,2014-04-04T23:00:00Z,27.8398,-97.0727,1.796,1111122 
TCOON,ioos:station:TCOON:009:1,2014-04-05T00:00:00Z,27.8398,-97.0727,1.822,1111122 
TCOON,ioos:station:TCOON:009:1,2014-04-05T01:00:00Z,27.8398,-97.0727,1.793,1111122 
TCOON,ioos:station:TCOON:009:1,2014-04-05T02:00:00Z,27.8398,-97.0727,1.714,1111122 
TCOON,ioos:station:TCOON:009:1,2014-04-05T03:00:00Z,27.8398,-97.0727,1.609,1111122 
TCOON,ioos:station:TCOON:009:1,2014-04-05T04:00:00Z,27.8398,-97.0727,1.618,1111122 
TCOON,ioos:station:TCOON:009:1,2014-04-05T05:00:00Z,27.8398,-97.0727,1.56,1111122 
TCOON,ioos:station:TCOON:009:1,2014-04-05T06:00:00Z,27.8398,-97.0727,1.523,1111122 
TCOON,ioos:station:TCOON:009:1,2014-04-05T07:00:00Z,27.8398,-97.0727,1.538,1111122 
TCOON,ioos:station:TCOON:009:1,2014-04-07T17:42:00Z,27.8398,-97.0727,1.803,1111122 
TCOON,ioos:station:TCOON:009:1,2014-04-07T18:00:00Z,27.8398,-97.0727,1.799,1111122 
TCOON,ioos:station:TCOON:009:1,2014-04-07T19:00:00Z,27.8398,-97.0727,1.805,1111122 
TCOON,ioos:station:TCOON:009:1,2014-04-07T20:00:00Z,27.8398,-97.0727,1.791,1111122 
TCOON,ioos:station:TCOON:009:1,2014-04-08T20:48:00Z,27.8398,-97.0727,1.621,1111122 
TCOON,ioos:station:TCOON:009:1,2014-04-08T21:00:00Z,27.8398,-97.0727,1.634,1111122 
TCOON,ioos:station:TCOON:009:1,2014-04-08T22:00:00Z,27.8398,-97.0727,1.626,1111122 
TCOON,ioos:station:TCOON:009:1,2014-04-08T23:00:00Z,27.8398,-97.0727,1.483,1111122 
TCOON,ioos:station:TCOON:009:1,2014-04-09T00:00:00Z,27.8398,-97.0727,1.552,1111122 
TCOON,ioos:station:TCOON:009:1,2014-04-09T01:00:00Z,27.8398,-97.0727,1.541,1111122 
TCOON,ioos:station:TCOON:009:1,2014-04-09T02:00:00Z,27.8398,-97.0727,1.523,1111122 
TCOON,ioos:station:TCOON:009:1,2014-04-09T03:00:00Z,27.8398,-97.0727,1.504,1111122 
TCOON,ioos:station:TCOON:009:1,2014-04-09T04:00:00Z,27.8398,-97.0727,1.511,1111122 
TCOON,ioos:station:TCOON:009:1,2014-04-09T19:30:00Z,27.8398,-97.0727,1.453,1111122 
TCOON,ioos:station:TCOON:009:1,2014-04-09T20:00:00Z,27.8398,-97.0727,1.453,1111122 
TCOON,ioos:station:TCOON:009:1,2014-04-09T21:00:00Z,27.8398,-97.0727,1.495,1111122 
TCOON,ioos:station:TCOON:009:1,2014-04-09T22:00:00Z,27.8398,-97.0727,1.476,1111122 
TCOON,ioos:station:TCOON:009:1,2014-04-10T00:00:00Z,27.8398,-97.0727,1.454,1111122 
TCOON,ioos:station:TCOON:009:1,2014-04-10T02:00:00Z,27.8398,-97.0727,1.464,1111122 
TCOON,ioos:station:TCOON:009:1,2014-04-10T03:00:00Z,27.8398,-97.0727,1.539,1111122 
TCOON,ioos:station:TCOON:009:1,2014-04-10T04:00:00Z,27.8398,-97.0727,1.512,1111122 
TCOON,ioos:station:TCOON:009:1,2014-04-10T05:00:00Z,27.8398,-97.0727,1.504,1111122 
TCOON,ioos:station:TCOON:009:1,2014-04-10T06:12:00Z,27.8398,-97.0727,1.507,1111122 
TCOON,ioos:station:TCOON:009:1,2014-04-10T07:00:00Z,27.8398,-97.0727,1.506,1111122 
TCOON,ioos:station:TCOON:009:1,2014-04-10T08:00:00Z,27.8398,-97.0727,1.486,1111122 
TCOON,ioos:station:TCOON:009:1,2014-04-10T09:00:00Z,27.8398,-97.0727,1.462,1111122 
TCOON,ioos:station:TCOON:009:1,2014-04-10T10:00:00Z,27.8398,-97.0727,1.437,1111122 
TCOON,ioos:station:TCOON:009:1,2014-04-10T11:00:00Z,27.8398,-97.0727,1.471,1111122 
TCOON,ioos:station:TCOON:009:1,2014-04-10T12:00:00Z,27.8398,-97.0727,1.466,1111122 
TCOON,ioos:station:TCOON:009:1,2014-04-10T13:00:00Z,27.8398,-97.0727,1.486,1111122 
TCOON,ioos:station:TCOON:009:1,2014-04-10T14:00:00Z,27.8398,-97.0727,1.532,1111122 
TCOON,ioos:station:TCOON:009:1,2014-04-10T15:00:00Z,27.8398,-97.0727,1.536,1111122 
TCOON,ioos:station:TCOON:009:1,2014-04-10T16:00:00Z,27.8398,-97.0727,1.588,1111122 
TCOON,ioos:station:TCOON:009:1,2014-04-10T17:00:00Z,27.8398,-97.0727,1.598,1111122 
TCOON,ioos:station:TCOON:009:1,2014-04-10T18:00:00Z,27.8398,-97.0727,1.617,1111122 
TCOON,ioos:station:TCOON:009:1,2014-04-10T19:00:00Z,27.8398,-97.0727,1.619,1111122 
TCOON,ioos:station:TCOON:009:1,2014-04-10T20:00:00Z,27.8398,-97.0727,1.606,1111122 
TCOON,ioos:station:TCOON:009:1,2014-04-10T21:00:00Z,27.8398,-97.0727,1.622,1111122 
TCOON,ioos:station:TCOON:009:1,2014-04-10T22:00:00Z,27.8398,-97.0727,1.595,1111122 
TCOON,ioos:station:TCOON:009:1,2014-04-10T23:00:00Z,27.8398,-97.0727,1.581,1111122 
TCOON,ioos:station:TCOON:009:1,2014-04-11T00:00:00Z,27.8398,-97.0727,1.589,1111122 
TCOON,ioos:station:TCOON:009:1,2014-04-11T01:00:00Z,27.8398,-97.0727,1.552,1111122 
TCOON,ioos:station:TCOON:009:1,2014-04-11T02:00:00Z,27.8398,-97.0727,1.578,1111122 
TCOON,ioos:station:TCOON:009:1,2014-04-11T03:00:00Z,27.8398,-97.0727,1.583,1111122 
TCOON,ioos:station:TCOON:009:1,2014-04-11T15:12:00Z,27.8398,-97.0727,1.584,1111122 
TCOON,ioos:station:TCOON:009:1,2014-04-11T16:00:00Z,27.8398,-97.0727,1.596,1111122 
TCOON,ioos:station:TCOON:009:1,2014-04-11T17:00:00Z,27.8398,-97.0727,1.618,1111122 
TCOON,ioos:station:TCOON:009:1,2014-04-11T18:00:00Z,27.8398,-97.0727,1.625,1111122 
TCOON,ioos:station:TCOON:009:1,2014-04-11T19:00:00Z,27.8398,-97.0727,1.654,1111122 
TCOON,ioos:station:TCOON:009:1,2014-04-11T20:00:00Z,27.8398,-97.0727,1.618,1111122 
TCOON,ioos:station:TCOON:009:1,2014-04-11T21:00:00Z,27.8398,-97.0727,1.612,1111122 
TCOON,ioos:station:TCOON:009:1,2014-04-11T22:00:00Z,27.8398,-97.0727,1.584,1111122 
TCOON,ioos:station:TCOON:009:1,2014-04-11T23:00:00Z,27.8398,-97.0727,1.576,1111122 
TCOON,ioos:station:TCOON:009:1,2014-04-12T00:00:00Z,27.8398,-97.0727,1.554,1111122 
TCOON,ioos:station:TCOON:009:1,2014-04-12T01:00:00Z,27.8398,-97.0727,1.523,1111122 
TCOON,ioos:station:TCOON:009:1,2014-04-12T02:00:00Z,27.8398,-97.0727,1.494,1111122 
TCOON,ioos:station:TCOON:009:1,2014-04-13T20:42:00Z,27.8398,-97.0727,1.714,1111122 
TCOON,ioos:station:TCOON:009:1,2014-04-13T21:00:00Z,27.8398,-97.0727,1.745,1111122 
TCOON,ioos:station:TCOON:009:1,2014-04-13T22:00:00Z,27.8398,-97.0727,1.66,1111122 
TCOON,ioos:station:TCOON:009:1,2014-04-13T23:00:00Z,27.8398,-97.0727,1.644,1111122 
TCOON,ioos:station:TCOON:009:1,2014-04-14T00:00:00Z,27.8398,-97.0727,1.629,1111122 
TCOON,ioos:station:TCOON:009:1,2014-04-14T01:00:00Z,27.8398,-97.0727,1.605,1111122 
TCOON,ioos:station:TCOON:009:1,2014-04-14T02:00:00Z,27.8398,-97.0727,1.589,1111122 
TCOON,ioos:station:TCOON:009:1,2014-04-14T03:00:00Z,27.8398,-97.0727,1.601,1111122 
TCOON,ioos:station:TCOON:009:1,2014-04-14T04:00:00Z,27.8398,-97.0727,1.625,1111122 
TCOON,ioos:station:TCOON:009:1,2014-04-14T05:00:00Z,27.8398,-97.0727,1.657,1111122 
TCOON,ioos:station:TCOON:009:1,2014-04-14T06:36:00Z,27.8398,-97.0727,1.721,1111122 
TCOON,ioos:station:TCOON:009:1,2014-04-14T07:00:00Z,27.8398,-97.0727,1.74,1111122 
TCOON,ioos:station:TCOON:009:1,2014-04-14T08:00:00Z,27.8398,-97.0727,1.787,1111122 
TCOON,ioos:station:TCOON:009:1,2014-04-14T09:00:00Z,27.8398,-97.0727,1.801,1111122 
TCOON,ioos:station:TCOON:009:1,2014-04-14T10:00:00Z,27.8398,-97.0727,1.812,1111122 
TCOON,ioos:station:TCOON:009:1,2014-04-14T11:00:00Z,27.8398,-97.0727,1.781,1111122 
TCOON,ioos:station:TCOON:009:1,2014-04-14T12:00:00Z,27.8398,-97.0727,1.759,1111122 
TCOON,ioos:station:TCOON:009:1,2014-04-14T13:00:00Z,27.8398,-97.0727,1.757,1111122 
TCOON,ioos:station:TCOON:009:1,2014-04-14T14:00:00Z,27.8398,-97.0727,1.805,1111122 
TCOON,ioos:station:TCOON:009:1,2014-04-14T15:00:00Z,27.8398,-97.0727,1.759,1111122 
TCOON,ioos:station:TCOON:009:1,2014-04-14T16:00:00Z,27.8398,-97.0727,1.755,1111122 
TCOON,ioos:station:TCOON:009:1,2014-04-14T17:00:00Z,27.8398,-97.0727,1.774,1111122 
TCOON,ioos:station:TCOON:009:1,2014-04-14T18:00:00Z,27.8398,-97.0727,1.857,1111122 
TCOON,ioos:station:TCOON:009:1,2014-04-16T17:18:00Z,27.8398,-97.0727,1.712,1111122 
TCOON,ioos:station:TCOON:009:1,2014-04-16T18:00:00Z,27.8398,-97.0727,1.72,1111122 
TCOON,ioos:station:TCOON:009:1,2014-04-16T19:00:00Z,27.8398,-97.0727,1.725,1111122 
TCOON,ioos:station:TCOON:009:1,2014-04-16T20:00:00Z,27.8398,-97.0727,1.707,1111122 
TCOON,ioos:station:TCOON:009:1,2014-04-16T21:00:00Z,27.8398,-97.0727,1.729,1111122 
TCOON,ioos:station:TCOON:009:1,2014-04-16T22:00:00Z,27.8398,-97.0727,1.711,1111122 
TCOON,ioos:station:TCOON:009:1,2014-04-16T23:00:00Z,27.8398,-97.0727,1.67,1111122 
TCOON,ioos:station:TCOON:009:1,2014-04-17T00:00:00Z,27.8398,-97.0727,1.633,1111122 
TCOON,ioos:station:TCOON:009:1,2014-04-17T01:00:00Z,27.8398,-97.0727,1.553,1111122 
TCOON,ioos:station:TCOON:009:1,2014-04-17T02:00:00Z,27.8398,-97.0727,1.546,1111122 
TCOON,ioos:station:TCOON:009:1,2014-04-17T03:00:00Z,27.8398,-97.0727,1.49,1111122 
TCOON,ioos:station:TCOON:009:1,2014-04-17T04:00:00Z,27.8398,-97.0727,1.522,1111122 
TCOON,ioos:station:TCOON:009:1,2014-04-17T05:00:00Z,27.8398,-97.0727,1.566,1111122 
TCOON,ioos:station:TCOON:009:1,2014-04-17T06:18:00Z,27.8398,-97.0727,1.604,1111122 
TCOON,ioos:station:TCOON:009:1,2014-04-17T07:00:00Z,27.8398,-97.0727,1.668,1111122 
TCOON,ioos:station:TCOON:009:1,2014-04-17T08:00:00Z,27.8398,-97.0727,1.758,1111122 
TCOON,ioos:station:TCOON:009:1,2014-04-17T09:00:00Z,27.8398,-97.0727,1.787,1111122 
TCOON,ioos:station:TCOON:009:1,2014-04-17T10:00:00Z,27.8398,-97.0727,1.818,1111122 
TCOON,ioos:station:TCOON:009:1,2014-04-17T11:00:00Z,27.8398,-97.0727,1.852,1111122 
TCOON,ioos:station:TCOON:009:1,2014-04-17T12:00:00Z,27.8398,-97.0727,1.862,1111122 
TCOON,ioos:station:TCOON:009:1,2014-04-17T13:00:00Z,27.8398,-97.0727,1.851,1111122 
TCOON,ioos:station:TCOON:009:1,2014-04-17T14:00:00Z,27.8398,-97.0727,1.859,1111122 
TCOON,ioos:station:TCOON:009:1,2014-04-17T15:00:00Z,27.8398,-97.0727,1.846,1111122 
TCOON,ioos:station:TCOON:009:1,2014-04-17T16:00:00Z,27.8398,-97.0727,1.878,1111122 
TCOON,ioos:station:TCOON:009:1,2014-04-17T17:00:00Z,27.8398,-97.0727,1.874,1111122 
TCOON,ioos:station:TCOON:009:1,2014-04-17T18:00:00Z,27.8398,-97.0727,1.849,1111122 
TCOON,ioos:station:TCOON:009:1,2014-04-17T19:00:00Z,27.8398,-97.0727,1.859,1111122 
TCOON,ioos:station:TCOON:009:1,2014-04-17T20:00:00Z,27.8398,-97.0727,1.849,1111122 
TCOON,ioos:station:TCOON:009:1,2014-04-17T21:00:00Z,27.8398,-97.0727,1.873,1111122 
TCOON,ioos:station:TCOON:009:1,2014-04-17T22:00:00Z,27.8398,-97.0727,1.835,1111122 
TCOON,ioos:station:TCOON:009:1,2014-04-17T23:00:00Z,27.8398,-97.0727,1.837,1111122 
TCOON,ioos:station:TCOON:009:1,2014-04-18T00:00:00Z,27.8398,-97.0727,1.725,1111122 
TCOON,ioos:station:TCOON:009:1,2014-04-18T01:00:00Z,27.8398,-97.0727,1.691,1111122 
TCOON,ioos:station:TCOON:009:1,2014-04-18T02:00:00Z,27.8398,-97.0727,1.626,1111122 
TCOON,ioos:station:TCOON:009:1,2014-04-18T03:00:00Z,27.8398,-97.0727,1.615,1111122 
TCOON,ioos:station:TCOON:009:1,2014-04-18T04:00:00Z,27.8398,-97.0727,1.605,1111122 
TCOON,ioos:station:TCOON:009:1,2014-04-18T05:00:00Z,27.8398,-97.0727,1.587,1111122 
TCOON,ioos:station:TCOON:009:1,2014-04-18T06:00:00Z,27.8398,-97.0727,1.598,1111122 
TCOON,ioos:station:TCOON:009:1,2014-04-18T07:00:00Z,27.8398,-97.0727,1.626,1111122 
TCOON,ioos:station:TCOON:009:1,2014-04-18T08:00:00Z,27.8398,-97.0727,1.694,1111122 
TCOON,ioos:station:TCOON:009:1,2014-04-18T09:00:00Z,27.8398,-97.0727,1.767,1111122 
TCOON,ioos:station:TCOON:009:1,2014-04-18T10:00:00Z,27.8398,-97.0727,1.804,1111122 
TCOON,ioos:station:TCOON:009:1,2014-04-18T11:00:00Z,27.8398,-97.0727,1.864,1111122 
TCOON,ioos:station:TCOON:009:1,2014-04-18T12:00:00Z,27.8398,-97.0727,1.854,1111122 
TCOON,ioos:station:TCOON:009:1,2014-04-18T13:00:00Z,27.8398,-97.0727,1.87,1111122 
TCOON,ioos:station:TCOON:009:1,2014-04-18T14:00:00Z,27.8398,-97.0727,1.838,1111122 
TCOON,ioos:station:TCOON:009:1,2014-04-18T15:00:00Z,27.8398,-97.0727,1.844,1111122 
TCOON,ioos:station:TCOON:009:1,2014-04-18T16:00:00Z,27.8398,-97.0727,1.826,1111122 
TCOON,ioos:station:TCOON:009:1,2014-04-18T17:00:00Z,27.8398,-97.0727,1.825,1111122 
TCOON,ioos:station:TCOON:009:1,2014-04-18T18:00:00Z,27.8398,-97.0727,1.816,1111122 
TCOON,ioos:station:TCOON:009:1,2014-04-18T19:00:00Z,27.8398,-97.0727,1.837,1111122 
TCOON,ioos:station:TCOON:009:1,2014-04-18T20:00:00Z,27.8398,-97.0727,1.795,1111122 
TCOON,ioos:station:TCOON:009:1,2014-04-18T21:00:00Z,27.8398,-97.0727,1.806,1111122 
TCOON,ioos:station:TCOON:009:1,2014-04-18T22:00:00Z,27.8398,-97.0727,1.817,1111122 
TCOON,ioos:station:TCOON:009:1,2014-04-18T23:00:00Z,27.8398,-97.0727,1.759,1111122 
TCOON,ioos:station:TCOON:009:1,2014-04-19T00:00:00Z,27.8398,-97.0727,1.719,1111122 
TCOON,ioos:station:TCOON:009:1,2014-04-19T01:00:00Z,27.8398,-97.0727,1.607,1111122 
TCOON,ioos:station:TCOON:009:1,2014-04-19T02:00:00Z,27.8398,-97.0727,1.574,1111122 
TCOON,ioos:station:TCOON:009:1,2014-04-19T03:00:00Z,27.8398,-97.0727,1.514,1111122 
TCOON,ioos:station:TCOON:009:1,2014-04-19T04:00:00Z,27.8398,-97.0727,1.489,1111122 
TCOON,ioos:station:TCOON:009:1,2014-04-19T05:00:00Z,27.8398,-97.0727,1.494,1111122 
TCOON,ioos:station:TCOON:009:1,2014-04-19T06:00:00Z,27.8398,-97.0727,1.459,1111122 
TCOON,ioos:station:TCOON:009:1,2014-04-19T07:00:00Z,27.8398,-97.0727,1.458,1111122 
TCOON,ioos:station:TCOON:009:1,2014-04-19T08:00:00Z,27.8398,-97.0727,1.436,1111122 
TCOON,ioos:station:TCOON:009:1,2014-04-19T09:00:00Z,27.8398,-97.0727,1.616,1111122 
TCOON,ioos:station:TCOON:009:1,2014-04-19T10:00:00Z,27.8398,-97.0727,1.691,1111122 
TCOON,ioos:station:TCOON:009:1,2014-04-19T11:00:00Z,27.8398,-97.0727,1.738,1111122 
TCOON,ioos:station:TCOON:009:1,2014-04-19T12:00:00Z,27.8398,-97.0727,1.782,1111122 
TCOON,ioos:station:TCOON:009:1,2014-04-19T13:00:00Z,27.8398,-97.0727,1.794,1111122 
TCOON,ioos:station:TCOON:009:1,2014-04-19T14:00:00Z,27.8398,-97.0727,1.8,1111122 
TCOON,ioos:station:TCOON:009:1,2014-04-19T15:00:00Z,27.8398,-97.0727,1.8,1111122 
TCOON,ioos:station:TCOON:009:1,2014-04-19T16:00:00Z,27.8398,-97.0727,1.78,1111122 
TCOON,ioos:station:TCOON:009:1,2014-04-19T17:00:00Z,27.8398,-97.0727,1.81,1111122 
TCOON,ioos:station:TCOON:009:1,2014-04-19T18:00:00Z,27.8398,-97.0727,1.815,1111122 
TCOON,ioos:station:TCOON:009:1,2014-04-19T19:00:00Z,27.8398,-97.0727,1.794,1111122 
TCOON,ioos:station:TCOON:009:1,2014-04-19T20:00:00Z,27.8398,-97.0727,1.816,1111122 
TCOON,ioos:station:TCOON:009:1,2014-04-19T21:00:00Z,27.8398,-97.0727,1.823,1111122 
TCOON,ioos:station:TCOON:009:1,2014-04-19T22:00:00Z,27.8398,-97.0727,1.812,1111122 
TCOON,ioos:station:TCOON:009:1,2014-04-19T23:00:00Z,27.8398,-97.0727,1.804,1111122 
TCOON,ioos:station:TCOON:009:1,2014-04-20T00:00:00Z,27.8398,-97.0727,1.768,1111122 
TCOON,ioos:station:TCOON:009:1,2014-04-20T01:00:00Z,27.8398,-97.0727,1.719,1111122 
TCOON,ioos:station:TCOON:009:1,2014-04-20T02:00:00Z,27.8398,-97.0727,1.638,1111122 
TCOON,ioos:station:TCOON:009:1,2014-04-20T03:00:00Z,27.8398,-97.0727,1.591,1111122 
TCOON,ioos:station:TCOON:009:1,2014-04-20T04:00:00Z,27.8398,-97.0727,1.549,1111122 
TCOON,ioos:station:TCOON:009:1,2014-04-20T05:00:00Z,27.8398,-97.0727,1.503,1111122 
TCOON,ioos:station:TCOON:009:1,2014-04-20T06:00:00Z,27.8398,-97.0727,1.498,1111122 
TCOON,ioos:station:TCOON:009:1,2014-04-20T07:00:00Z,27.8398,-97.0727,1.515,1111122 
TCOON,ioos:station:TCOON:009:1,2014-04-20T08:00:00Z,27.8398,-97.0727,1.53,1111122 
TCOON,ioos:station:TCOON:009:1,2014-04-20T09:00:00Z,27.8398,-97.0727,1.585,1111122 
TCOON,ioos:station:TCOON:009:1,2014-04-20T10:00:00Z,27.8398,-97.0727,1.647,1111122 
TCOON,ioos:station:TCOON:009:1,2014-04-20T11:00:00Z,27.8398,-97.0727,1.727,1111122 
TCOON,ioos:station:TCOON:009:1,2014-04-20T12:00:00Z,27.8398,-97.0727,1.785,1111122 
TCOON,ioos:station:TCOON:009:1,2014-04-20T13:00:00Z,27.8398,-97.0727,1.78,1111122 
TCOON,ioos:station:TCOON:009:1,2014-04-20T14:00:00Z,27.8398,-97.0727,1.818,1111122 
TCOON,ioos:station:TCOON:009:1,2014-04-20T15:00:00Z,27.8398,-97.0727,1.826,1111122 
TCOON,ioos:station:TCOON:009:1,2014-04-20T16:00:00Z,27.8398,-97.0727,1.852,1111122 
TCOON,ioos:station:TCOON:009:1,2014-04-20T17:00:00Z,27.8398,-97.0727,1.833,1111122 
TCOON,ioos:station:TCOON:009:1,2014-04-20T18:00:00Z,27.8398,-97.0727,1.823,1111122 
TCOON,ioos:station:TCOON:009:1,2014-04-20T19:00:00Z,27.8398,-97.0727,1.829,1111122 
TCOON,ioos:station:TCOON:009:1,2014-04-20T20:00:00Z,27.8398,-97.0727,1.8,1111122 
TCOON,ioos:station:TCOON:009:1,2014-04-20T21:00:00Z,27.8398,-97.0727,1.785,1111122 
TCOON,ioos:station:TCOON:009:1,2014-04-20T22:00:00Z,27.8398,-97.0727,1.81,1111122 
TCOON,ioos:station:TCOON:009:1,2014-04-20T23:00:00Z,27.8398,-97.0727,1.795,1111122 
TCOON,ioos:station:TCOON:009:1,2014-04-21T00:00:00Z,27.8398,-97.0727,1.768,1111122 
TCOON,ioos:station:TCOON:009:1,2014-04-21T01:00:00Z,27.8398,-97.0727,1.714,1111122 
TCOON,ioos:station:TCOON:009:1,2014-04-21T02:00:00Z,27.8398,-97.0727,1.658,1111122 
TCOON,ioos:station:TCOON:009:1,2014-04-21T03:00:00Z,27.8398,-97.0727,1.591,1111122 
TCOON,ioos:station:TCOON:009:1,2014-04-21T04:00:00Z,27.8398,-97.0727,1.558,1111122 